Miscellaneous Local Product
Issued by NWS Hastings, NE

Home | Current Version | Previous Version | Graphics & Text | Print | Product List | Glossary On
Versions: 1 2 3 4 5 6 7 8 9 10 11 12 13 14 15 16 17 18 19 20 21 22 23 24 25 26 27 28 29 30 31 32 33 34 35 36 37 38 39 40 41 42 43 44 45 46 47 48 49 50
190
AXUS43 KGID 241702
MISGRI

GID CWA HOURLY WEATHER ROUNDUP
NATIONAL WEATHER SERVICE HASTINGS NE
1100 AM CST FRI FEB 24 2017

NOTE: "FAIR" INDICATES FEW OR NO CLOUDS BELOW 12,000 FEET WITH NO
SIGNIFICANT WEATHER AND/OR OBSTRUCTIONS TO VISIBILITY.

...SOUTH CENTRAL NEBRASKA...

CITY           SKY/WX    TMP DP  RH WIND       PRES   REMARKS
GRAND ISLAND   CLOUDY    21  19  92 N24G33    29.93R FOG     WCI   4
HASTINGS       FOG       22  18  85 N31G40    29.93R VSB 1/2 WCI   4
KEARNEY        CLOUDY    21  16  79 N15       29.95R VSB 3/4 WCI   8
ORD            CLOUDY    21  13  71 N24G35    29.96R BLWGSNOWWCI   4
YORK           HVY SNOW  23  21  93 N16G24    29.87R WCI  10
AURORA         LGT SNOW  22  20  92 N18G28    29.91R VSB 3/4 WCI   8
LEXINGTON      CLOUDY    22  16  76 N25G40    29.97R HAZE    WCI   5
HOLDREGE         N/A     21  18  88 N21G29    29.94R WCI   6
HEBRON         LGT SNOW  24  21  88 N14G24    29.89R WCI  12

...NEBRASKA PANHANDLE...

CITY           SKY/WX    TMP DP  RH WIND       PRES   REMARKS
CHADRON        CLOUDY    20  14  77 N9        30.08R WCI   9
ALLIANCE       CLOUDY    20  15  81 N13       30.00R HAZE    WCI   7
SCOTTSBLUFF    LGT SNOW  23  16  74 E7        30.02R WCI  15
SIDNEY         LGT SNOW  20  16  84 N12       29.99R FOG     WCI   8

...WESTERN AND NORTH CENTRAL NEBRASKA...

CITY           SKY/WX    TMP DP  RH WIND       PRES   REMARKS
VALENTINE      MOSUNNY   19  11  70 N13       30.06R WCI   6
AINSWORTH      PTSUNNY   19  15  83 N22       30.03S WCI   2
ONEILL         CLOUDY    21  15  78 N23       29.99R WCI   4
BROKEN BOW     CLOUDY    20  14  77 N25G36    29.97R HAZE    WCI   2
IMPERIAL       CLOUDY    24  19  81 N17       30.00R HAZE    WCI  11
NORTH PLATTE   CLOUDY    23  15  71 N21G28    30.01R WCI   8
MCCOOK         CLOUDY    27  21  78 N24       29.99R WCI  12

...EASTERN NEBRASKA...

CITY           SKY/WX    TMP DP  RH WIND       PRES   REMARKS
NORFOLK        CLOUDY    21  15  78 N14G24    29.91R WCI   8
SO SIOUX CITY  HAZE      25  20  81 N24       29.88R VSB 1   WCI   9
TEKAMAH        FOG       24  21  88 N32G39    29.84R VSB 1/2 WCI   6
COLUMBUS       CLOUDY    21  16  79 N24G36    29.88R VSB 1   WCI   4
ALBION         CLOUDY    22  14  71 N21G32    29.92R HAZE    WCI   7
OMAHA EPPLEY   LGT SNOW  26  21  81 N24       29.80R VSB 3/4 WCI  11
OFFUTT AFB     LGT SNOW  27  23  84 N13       29.80R WCI  16
MILLARD        LGT SNOW  28  24  84 N14G25    29.82R WCI  17
LINCOLN        SNOW      26  23  88 N18G30    29.84R VSB 1/2 WCI  13
NEBRASKA CITY  LGT SNOW  27  24  86 N15G25    29.78R WCI  16
BEATRICE       LGT SNOW  28  26  93 N26       29.84R WCI  13
FALLS CITY     FRZ RAIN  31  28  89 N17G30    29.75R WCI  19

...NORTHERN KANSAS...

CITY           SKY/WX    TMP DP  RH WIND       PRES   REMARKS
GOODLAND       CLOUDY    25  21  85 N21       29.96R WCI  11
HILL CITY      LGT SNOW  29  25  85 N24G32    29.97R FOG     WCI  15
NORTON         LGT SNOW  25  19  80 N25G35    29.95R VSB 1   WCI   9
PHILLIPSBURG   LGT SNOW  27  21  80 NW22G35   29.96R WCI  12
SMITH CENTER   LGT SNOW  23  21  93 N21G26    29.94R VSB 1   WCI   8
HAYS           PTSUNNY   30  21  69 N22G33    29.94R WCI  17
RUSSELL        LGT SNOW  28  21  75 N26G33    29.92R WCI  13
CONCORDIA      LGT SNOW  26  23  88 NW21G32   29.89R FOG     WCI  12
SALINA         CLOUDY    33  24  69 NW28      29.89R WCI  20
TOPEKA         CLOUDY    38  34  85 NW14      29.75R WCI  30



USA.gov is the U.S. government's official web portal to all federal, state and local government web resources and services.